Regional Weather Roundup
Issued by NWS

Home | Current Version | Previous Version | Graphics & Text | Print | Product List | Glossary On
Versions: 1 2 3 4 5 6 7 8 9 10 11 12 13 14 15 16 17 18 19 20 21 22 23 24 25 26 27 28 29 30 31 32 33 34 35 36 37 38 39 40 41 42 43 44 45 46 47 48 49 50
000
ASUS45 KTFX 012310
RWRMT
MONTANA REGIONAL WEATHER ROUNDUP
NATIONAL WEATHER SERVICE GREAT FALLS MT
500 PM MDT MON JUN 01 2015

NOTE: "FAIR" INDICATES FEW OR NO CLOUDS BELOW 12000 FEET WITH NO
SIGNIFICANT WEATHER AND/OR OBSTRUCTIONS TO VISIBILITY.

MTZ001>007-043-020000-
WEST OF THE DIVIDE

CITY           SKY/WX    TMP DP  RH WIND       PRES   REMARKS
KALISPELL      CLOUDY    80  46  30 SE6       29.75F
MISSOULA       LGT RAIN  60  52  74 VRB5      29.91S
BUTTE          CLOUDY    54  32  43 SE3       30.03R
MULLAN PASS    CLOUDY    62  41  46 VRB3      29.94F
DEER LODGE       N/A     61  52  72 CALM      29.98S
EUREKA           N/A     81  37  21 NW7       29.76F
HAMILTON         N/A     68  48  49 N2        29.89F
LIBBY            N/A     79  46  31 NE7       29.76R
PLAINS           N/A     65  54  67 SE5       29.84R
RONAN            N/A     71  52  51 SE17      29.88R
$$

MTZ008-052>055-020000-
SOUTHWEST MONTANA

CITY           SKY/WX    TMP DP  RH WIND       PRES   REMARKS
BOZEMAN        LGT RAIN  55  51  86 E9        29.94R
DILLON         CLOUDY    54  48  80 SE10      30.02S
W YELLOWSTONE  PTSUNNY   72  37  28 SW18G32   29.93F
THREE FORKS      N/A     60  16  18 SW9       29.92R
$$

MTZ009-010-012-014-046-048-049-054-020000-
EAST SLOPES AND CENTRAL MONTANA

CITY           SKY/WX    TMP DP  RH WIND       PRES   REMARKS
CUT BANK       PTSUNNY   74  44  34 E6        29.86F
GREAT FALLS    CLOUDY    72  47  40 NE10      29.84S
HELENA         LGT RAIN  62  53  72 NW7       29.90R
CONRAD           N/A     73  49  42 NE6       29.91S
$$

MTZ011-013-016-021-045-047-050-051-020000-
NORTH CENTRAL MONTANA

CITY           SKY/WX    TMP DP  RH WIND       PRES   REMARKS
HAVRE          PTSUNNY   78  49  35 E15       29.82F
LEWISTOWN      PTSUNNY   71  56  58 SE14      29.87F
N BAR RANCH    FAIR      66  52  59 CALM      29.92F
CHINOOK          N/A     81  46  30 NE10G16   29.82S
FORT BENTON      N/A     75  48  38 N8        29.82F
$$

MTZ017>020-022>027-061-062-020000-
NORTHEAST MONTANA

CITY           SKY/WX    TMP DP  RH WIND       PRES   REMARKS
GLASGOW        PTSUNNY   86  46  24 VRB6      29.78F
JORDAN           N/A     85  46  25 NE8       29.80S
SIDNEY         MOSUNNY   88  52  29 CALM      29.75S
WOLF POINT     PTSUNNY   87  51  28 NW9       29.76F
MALTA            N/A     81  49  32 NE5       29.80R
PLENTYWOOD       N/A     82  52  34 N15       29.78F
POPLAR           N/A     86  54  32 N14       29.75F
SCOBEY           N/A     78  49  36 S18       29.82S
$$

MTZ028>42-056>058-020000-
SOUTHCENTRAL AND SOUTHEAST MONTANA

CITY           SKY/WX    TMP DP  RH WIND       PRES   REMARKS
BAKER          MOSUNNY   85  52  32 VRB5      29.82F
BILLINGS       PTSUNNY   79  47  32 NE7       29.81S
LIVINGSTON     MOSUNNY   76  49  38 E23G31    29.76F
MILES CITY     PTSUNNY   86  45  23 NE7       29.77F
BIG TIMBER       N/A     72  52  49 E16G22    29.82F
EKALAKA          N/A     83  54  36 E8        29.84F
FORSYTH          N/A     84  43  23 E6        29.77S
LAUREL           N/A     75  50  41 NW2       29.83R
ROUNDUP          N/A     79  48  33 N7        29.77S
$$

REGIONAL REPORTS...DAKOTAS

CITY           SKY/WX    TMP DP  RH WIND       PRES   REMARKS
WILLISTON      CLOUDY    85  54  34 N15G25    29.74S
MINOT          SUNNY     83  55  38 S14G24    29.75F
DICKINSON      PTSUNNY   83  59  44 S15       29.80F
BEACH          FAIR      86  46  25 W7        29.80F
CROSBY         FAIR      82  55  39 N9        29.78S
WATFORD CITY   FAIR      86  52  30 W9        29.73F
BISMARCK       MOSUNNY   81  58  45 S12G24    29.82F
GRAND FORKS    MOSUNNY   73  48  41 S23G33    29.93F
FARGO          MOSUNNY   73  48  41 S22G36    29.96F
BUFFALO SD       N/A     84  58  40 S13       29.75F
RAPID CITY     MOSUNNY   84  59  42 S17G25    29.83F
$$

REGIONAL REPORTS...WYOMING/IDAHO/WASHINGTON

CITY           SKY/WX    TMP DP  RH WIND       PRES   REMARKS
GILLETTE         N/A     85  52  32 SW10      29.83F
SHERIDAN       PTSUNNY   80  61  52 SW3       29.81F
BUFFALO WY     PTSUNNY   79  57  46 NW9       29.88S
CODY           CLOUDY    70  45  40 SE7       29.87F
YELLOWSTONE LA   N/A     63  41  44 CALM      30.04F
IDAHO FALLS    TSTM      62  48  60 NW21G33   29.94R
SALMON           N/A     63  46  55 S8        29.92F
BOISE          MOSUNNY   84  39  20 NE10      29.77F
SPOKANE        CLOUDY    79  51  37 VRB3      29.78F
$$

REGIONAL REPORTS...ALBERTA

CITY           SKY/WX    TMP DP  RH WIND       PRES   REMARKS
EDMONTON       MOSUNNY   63  45  51 N10       29.98R
CALGARY        PTSUNNY   72  37  28 SE6       29.90S
LETHBRIDGE     PTSUNNY   75  41  29 E8        29.86F
$$

REGIONAL REPORTS...SASKATCHEWAN

CITY           SKY/WX    TMP DP  RH WIND       PRES   REMARKS
SWIFT CURRENT  SUNNY     75  32  20 N8G23     29.88S
REGINA         PTSUNNY   75  46  35 N13       29.84S
SASKATOON      MOSUNNY   70  46  43 N10G23    29.89S
$$


USA.gov is the U.S. government's official web portal to all federal, state and local government web resources and services.